Year,Month,Day,Hour,Minute,Value (Times are PST for temperature in C)
2010,02,04,11,55,10.20
2010,02,04,11,56,10.20
2010,02,04,11,57,10.30
2010,02,04,11,58,10.30
2010,02,04,11,59,10.30
2010,02,04,12,00,10.30
2010,02,04,12,01,10.30
2010,02,04,12,02,10.30
2010,02,04,12,03,10.30
2010,02,04,12,04,10.30
2010,02,04,12,05,10.30
2010,02,04,12,06,10.30
2010,02,04,12,07,10.30
2010,02,04,12,08,10.30
2010,02,04,12,09,10.30
2010,02,04,12,10,10.40
2010,02,04,12,11,10.40
2010,02,04,12,12,10.40
2010,02,04,12,13,10.40
2010,02,04,12,14,10.40
2010,02,04,12,15,10.40
2010,02,04,12,16,10.40
2010,02,04,12,17,10.40
2010,02,04,12,18,10.50
2010,02,04,12,19,10.60
2010,02,04,12,20,10.60
2010,02,04,12,21,10.60
2010,02,04,12,22,10.60
2010,02,04,12,23,10.60
2010,02,04,12,24,10.70
2010,02,04,12,25,10.70
2010,02,04,12,30,10.80
2010,02,04,12,31,10.80
2010,02,04,12,32,10.80
2010,02,04,12,33,10.80
2010,02,04,12,34,10.80
2010,02,04,12,35,10.80
2010,02,04,12,36,10.80
2010,02,04,12,37,10.80
2010,02,04,12,38,10.70
2010,02,04,12,39,10.60
2010,02,04,12,40,10.60
2010,02,04,12,41,10.60
2010,02,04,12,42,10.60
2010,02,04,12,43,10.60
2010,02,04,12,44,10.60
2010,02,04,12,45,10.60
2010,02,04,12,46,10.60
2010,02,04,12,47,10.60
2010,02,04,12,48,10.60
2010,02,04,12,49,10.60
2010,02,04,12,50,10.60
2010,02,04,12,51,10.60
2010,02,04,12,52,10.60
2010,02,04,12,53,10.70
2010,02,04,12,54,10.70
2010,02,04,12,55,10.80
2010,02,04,12,56,10.80
2010,02,04,12,57,10.90
2010,02,04,12,58,10.90
2010,02,04,12,59,10.90
2010,02,04,13,00,10.90
2010,02,04,13,01,10.90
2010,02,04,13,02,10.90
2010,02,04,13,03,10.90
2010,02,04,13,04,10.90
2010,02,04,13,05,10.90
2010,02,04,13,06,10.90
2010,02,04,13,07,10.90
2010,02,04,13,08,10.90
2010,02,04,13,09,10.80
2010,02,04,13,10,10.80
2010,02,04,13,11,10.80
2010,02,04,13,12,10.80
2010,02,04,13,13,10.70
2010,02,04,13,14,10.70
2010,02,04,13,15,10.70
2010,02,04,13,16,10.70
2010,02,04,13,17,10.70
2010,02,04,13,18,10.60
2010,02,04,13,19,10.60
2010,02,04,13,20,10.60
2010,02,04,13,21,10.60
2010,02,04,13,22,10.70
2010,02,04,13,23,10.70
2010,02,04,13,24,10.80
2010,02,04,13,25,10.90
2010,02,04,13,26,10.90
2010,02,04,13,27,10.90
2010,02,04,13,28,11.00
2010,02,04,13,29,10.90
2010,02,04,13,30,10.90
2010,02,04,13,31,10.90
2010,02,04,13,32,11.00
2010,02,04,13,33,11.00
2010,02,04,13,34,10.90
2010,02,04,13,35,10.90
2010,02,04,13,36,10.90
2010,02,04,13,37,11.00
2010,02,04,13,38,11.10
2010,02,04,13,39,11.10
2010,02,04,13,40,11.10
2010,02,04,13,41,11.10
2010,02,04,13,42,11.10
2010,02,04,13,43,11.10
2010,02,04,13,44,11.10
2010,02,04,13,45,11.20
2010,02,04,13,46,11.20
2010,02,04,13,47,11.20
2010,02,04,13,48,11.20
2010,02,04,13,49,11.20
2010,02,04,13,50,11.20
2010,02,04,13,51,11.20
2010,02,04,13,52,11.30
2010,02,04,13,53,11.30
2010,02,04,13,54,11.20
2010,02,04,13,55,11.20
2010,02,04,13,56,11.20
2010,02,04,13,57,11.10
2010,02,04,13,58,11.20
2010,02,04,13,59,11.20
2010,02,04,14,00,11.20
2010,02,04,14,01,11.20
2010,02,04,14,02,11.20
2010,02,04,14,03,11.20
2010,02,04,14,04,11.20
2010,02,04,14,05,11.20
2010,02,04,14,06,11.20
2010,02,04,14,07,11.20
2010,02,04,14,08,11.10
2010,02,04,14,09,11.10
2010,02,04,14,10,11.20
2010,02,04,14,11,11.20
2010,02,04,14,12,11.20
2010,02,04,14,13,11.10
2010,02,04,14,14,11.10
2010,02,04,14,15,11.10
2010,02,04,14,16,11.10
2010,02,04,14,17,11.20
2010,02,04,14,18,11.20
2010,02,04,14,19,11.20
2010,02,04,14,20,11.20
2010,02,04,14,21,11.20
2010,02,04,14,22,11.20
2010,02,04,14,23,11.30
2010,02,04,14,24,11.30
2010,02,04,14,25,11.30
2010,02,04,14,26,11.30
2010,02,04,14,27,11.30
2010,02,04,14,28,11.30
2010,02,04,14,29,11.30
2010,02,04,14,30,11.30
2010,02,04,14,31,11.30
2010,02,04,14,32,11.20
2010,02,04,14,33,11.20
2010,02,04,14,34,11.20
2010,02,04,14,35,11.20
2010,02,04,14,36,11.20
2010,02,04,14,37,11.20
2010,02,04,14,38,11.20
2010,02,04,14,39,11.20
2010,02,04,14,40,11.20
2010,02,04,14,41,11.20
2010,02,04,14,42,11.20
2010,02,04,14,43,11.20
2010,02,04,14,44,11.20
2010,02,04,14,45,11.20
2010,02,04,14,46,11.20
2010,02,04,14,47,11.20
2010,02,04,14,48,11.10
2010,02,04,14,49,11.10
2010,02,04,14,50,11.10
2010,02,04,14,51,11.20
2010,02,04,14,52,11.20
2010,02,04,14,53,11.20
2010,02,04,14,54,11.20
2010,02,04,14,55,11.20
2010,02,04,14,56,11.20
2010,02,04,14,57,11.20
2010,02,04,14,58,11.20
2010,02,04,14,59,11.20
2010,02,04,15,00,11.20
2010,02,04,15,01,11.20
2010,02,04,15,02,11.20
2010,02,04,15,03,11.20
2010,02,04,15,04,11.20
2010,02,04,15,05,11.20
2010,02,04,15,06,11.20
2010,02,04,15,07,11.20
2010,02,04,15,08,11.20
2010,02,04,15,09,11.20
2010,02,04,15,10,11.20
2010,02,04,15,11,11.20
2010,02,04,15,12,11.20
2010,02,04,15,13,11.20
2010,02,04,15,14,11.20
2010,02,04,15,15,11.20
2010,02,04,15,16,11.20
2010,02,04,15,17,11.20
2010,02,04,15,18,11.20
2010,02,04,15,19,11.30
2010,02,04,15,20,11.30
2010,02,04,15,21,11.30
2010,02,04,15,22,11.30
2010,02,04,15,23,11.30
2010,02,04,15,24,11.30
2010,02,04,15,25,11.20
2010,02,04,15,26,11.20
2010,02,04,15,27,11.20
2010,02,04,15,28,11.20
2010,02,04,15,29,11.20
2010,02,04,15,30,11.20
2010,02,04,15,31,11.20
2010,02,04,15,32,11.20
2010,02,04,15,33,11.30
2010,02,04,15,34,11.20
2010,02,04,15,35,11.20
2010,02,04,15,36,11.20
2010,02,04,15,37,11.20
2010,02,04,15,38,11.20
2010,02,04,15,39,11.20
2010,02,04,15,40,11.20
2010,02,04,15,41,11.30
2010,02,04,15,42,11.30
2010,02,04,15,43,11.30
2010,02,04,15,44,11.30
2010,02,04,15,45,11.30
2010,02,04,15,46,11.30
2010,02,04,15,47,11.30
2010,02,04,15,48,11.30
2010,02,04,15,49,11.30
2010,02,04,15,50,11.30
2010,02,04,15,51,11.30
2010,02,04,15,52,11.30
2010,02,04,15,53,11.30
2010,02,04,15,54,11.30
2010,02,04,15,55,11.30
2010,02,04,15,56,11.30
2010,02,04,15,57,11.30
2010,02,04,15,58,11.30
2010,02,04,15,59,11.30
2010,02,04,16,00,11.30
2010,02,04,16,01,11.30
2010,02,04,16,02,11.20
2010,02,04,16,03,11.20
2010,02,04,16,04,11.20
2010,02,04,16,05,11.20
2010,02,04,16,06,11.20
2010,02,04,16,07,11.20
2010,02,04,16,08,11.20
2010,02,04,16,09,11.20
2010,02,04,16,10,11.20
2010,02,04,16,11,11.20
2010,02,04,16,12,11.20
2010,02,04,16,13,11.20
2010,02,04,16,14,11.20
2010,02,04,16,15,11.20
2010,02,04,16,16,11.20
2010,02,04,16,17,11.20
2010,02,04,16,18,11.20
2010,02,04,16,19,11.20
2010,02,04,16,20,11.10
2010,02,04,16,21,11.10
2010,02,04,16,22,11.10
2010,02,04,16,23,11.10
2010,02,04,16,24,11.10
2010,02,04,16,25,11.10
2010,02,04,16,26,11.10
2010,02,04,16,27,11.10
2010,02,04,16,28,11.10
2010,02,04,16,29,11.10
2010,02,04,16,30,11.10
2010,02,04,16,31,11.10
2010,02,04,16,32,11.10
2010,02,04,16,33,11.10
2010,02,04,16,34,11.10
2010,02,04,16,35,11.10
2010,02,04,16,36,11.10
2010,02,04,16,37,11.10
2010,02,04,16,38,11.10
2010,02,04,16,39,11.10
2010,02,04,16,40,11.10
2010,02,04,16,41,11.10
2010,02,04,16,42,11.10
2010,02,04,16,43,11.10
2010,02,04,16,44,11.10
2010,02,04,16,45,11.10
2010,02,04,16,46,11.10
2010,02,04,16,47,11.00
2010,02,04,16,48,10.90
2010,02,04,16,49,10.90
2010,02,04,16,50,10.90
2010,02,04,16,51,10.90
2010,02,04,16,52,10.90
2010,02,04,16,53,10.90
2010,02,04,16,54,10.90
2010,02,04,16,55,10.90
2010,02,04,16,56,10.90
2010,02,04,16,57,10.90
2010,02,04,16,58,11.00
2010,02,04,16,59,11.00
2010,02,04,17,00,10.90
2010,02,04,17,01,10.90
2010,02,04,17,02,10.90
2010,02,04,17,03,10.90
2010,02,04,17,04,11.10
2010,02,04,17,05,11.10
2010,02,04,17,06,11.10
2010,02,04,17,07,11.10
2010,02,04,17,08,11.10
2010,02,04,17,09,11.10
2010,02,04,17,10,11.10
2010,02,04,17,11,11.10
2010,02,04,17,12,11.10
2010,02,04,17,13,11.10
2010,02,04,17,14,11.10
2010,02,04,17,15,11.10
2010,02,04,17,16,11.10
2010,02,04,17,17,11.10
2010,02,04,17,18,11.10
2010,02,04,17,19,11.10
2010,02,04,17,20,11.10
2010,02,04,17,21,11.10
2010,02,04,17,22,11.10
2010,02,04,17,23,11.10
2010,02,04,17,24,11.10
2010,02,04,17,25,11.10
2010,02,04,17,26,11.10
2010,02,04,17,27,11.10
2010,02,04,17,28,11.10
2010,02,04,17,29,11.10
2010,02,04,17,30,11.10
2010,02,04,17,31,11.10
2010,02,04,17,32,11.10
2010,02,04,17,33,11.20
2010,02,04,17,34,11.20
2010,02,04,17,35,11.20
2010,02,04,17,36,11.20
2010,02,04,17,37,11.30
2010,02,04,17,38,11.30
2010,02,04,17,39,11.30
2010,02,04,17,40,11.30
2010,02,04,17,41,11.30
2010,02,04,17,42,11.30
2010,02,04,17,43,11.30
2010,02,04,17,44,11.30
2010,02,04,17,45,11.30
2010,02,04,17,46,11.30
2010,02,04,17,47,11.30
2010,02,04,17,48,11.40
2010,02,04,17,49,11.40
2010,02,04,17,50,11.40
2010,02,04,17,51,11.40
2010,02,04,17,52,11.40
2010,02,04,17,53,11.40
2010,02,04,17,54,11.40
2010,02,04,17,55,11.40
2010,02,04,17,56,11.40
2010,02,04,17,57,11.40
2010,02,04,17,58,11.40
2010,02,04,17,59,11.40
2010,02,04,18,00,11.40
2010,02,04,18,01,11.40
2010,02,04,18,02,11.40
2010,02,04,18,03,11.40
2010,02,04,18,04,11.40
2010,02,04,18,05,11.50
2010,02,04,18,06,11.60
2010,02,04,18,07,11.60
2010,02,04,18,08,11.60
2010,02,04,18,09,11.60
2010,02,04,18,10,11.60
2010,02,04,18,11,11.60
2010,02,04,18,12,11.60
2010,02,04,18,13,11.60
2010,02,04,18,14,11.70
2010,02,04,18,15,11.70
2010,02,04,18,16,11.70
2010,02,04,18,17,11.70
2010,02,04,18,18,11.70
2010,02,04,18,19,11.60
2010,02,04,18,20,11.70
2010,02,04,18,21,11.70
2010,02,04,18,22,11.60
2010,02,04,18,23,11.70
2010,02,04,18,24,11.70
2010,02,04,18,25,11.70
2010,02,04,18,26,11.70
2010,02,04,18,27,11.70
2010,02,04,18,28,11.70
2010,02,04,18,29,11.70
2010,02,04,18,30,11.60
2010,02,04,18,31,11.60
2010,02,04,18,32,11.60
2010,02,04,18,33,11.60
2010,02,04,18,34,11.60
2010,02,04,18,35,11.60
2010,02,04,18,36,11.60
2010,02,04,18,37,11.60
2010,02,04,18,38,11.60
2010,02,04,18,39,11.60
2010,02,04,18,40,11.60
2010,02,04,18,41,11.60
2010,02,04,18,42,11.60
2010,02,04,18,43,11.40
2010,02,04,18,44,11.40
2010,02,04,18,45,11.40
2010,02,04,18,46,11.40
2010,02,04,18,47,11.40
2010,02,04,18,48,11.40
2010,02,04,18,49,11.40
2010,02,04,18,50,11.40
2010,02,04,18,51,11.40
2010,02,04,18,52,11.40
2010,02,04,18,53,11.40
2010,02,04,18,54,11.40
2010,02,04,18,55,11.40
2010,02,04,18,56,11.40
2010,02,04,18,57,11.40
2010,02,04,18,58,11.40
2010,02,04,18,59,11.30
2010,02,04,19,00,11.30
2010,02,04,19,01,11.30
2010,02,04,19,02,11.30
2010,02,04,19,03,11.30
2010,02,04,19,04,11.30
2010,02,04,19,05,11.30
2010,02,04,19,06,11.30
2010,02,04,19,07,11.20
2010,02,04,19,08,11.20
2010,02,04,19,09,11.20
2010,02,04,19,10,11.20
2010,02,04,19,11,11.20
2010,02,04,19,12,11.10
2010,02,04,19,13,11.10
2010,02,04,19,14,11.10
2010,02,04,19,15,11.10
2010,02,04,19,16,11.10
2010,02,04,19,17,11.10
2010,02,04,19,18,11.10
2010,02,04,19,19,11.10
2010,02,04,19,20,11.10
2010,02,04,19,21,11.10
2010,02,04,19,22,11.10
2010,02,04,19,23,11.20
2010,02,04,19,24,11.20
2010,02,04,19,25,11.30
2010,02,04,19,26,11.30
2010,02,04,19,27,11.40
2010,02,04,19,28,11.40
2010,02,04,19,29,11.40
2010,02,04,19,30,11.40
2010,02,04,19,31,11.40
2010,02,04,19,32,11.40
2010,02,04,19,33,11.40
2010,02,04,19,34,11.40
2010,02,04,19,35,11.40
2010,02,04,19,36,11.40
2010,02,04,19,37,11.40
2010,02,04,19,38,11.40
2010,02,04,19,39,11.40
2010,02,04,19,40,11.30
2010,02,04,19,41,11.30
2010,02,04,19,42,11.30
2010,02,04,19,43,11.40
2010,02,04,19,44,11.40
2010,02,04,19,45,11.40
2010,02,04,19,46,11.40
2010,02,04,19,47,11.30
2010,02,04,19,48,11.30
2010,02,04,19,49,11.30
2010,02,04,19,50,11.30
2010,02,04,19,51,11.30
2010,02,04,19,52,11.30
2010,02,04,19,53,11.30
2010,02,04,19,54,11.30
2010,02,04,19,55,11.30
2010,02,04,19,56,11.30
2010,02,04,19,57,11.30
2010,02,04,19,58,11.30
2010,02,04,19,59,11.20
2010,02,04,20,00,11.20
2010,02,04,20,01,11.20
2010,02,04,20,02,11.20
2010,02,04,20,03,11.20
2010,02,04,20,04,11.20
2010,02,04,20,05,11.20
2010,02,04,20,06,11.20
2010,02,04,20,07,11.20
2010,02,04,20,08,11.30
2010,02,04,20,09,11.30
2010,02,04,20,10,11.30
2010,02,04,20,11,11.30
2010,02,04,20,12,11.30
2010,02,04,20,13,11.30
2010,02,04,20,14,11.30
2010,02,04,20,15,11.20
2010,02,04,20,16,11.20
2010,02,04,20,17,11.20
2010,02,04,20,18,11.20
2010,02,04,20,19,11.20
2010,02,04,20,20,11.30
2010,02,04,20,21,11.30
2010,02,04,20,22,11.30
2010,02,04,20,23,11.30
2010,02,04,20,24,11.30
2010,02,04,20,25,11.30
2010,02,04,20,26,11.40
2010,02,04,20,27,11.40
2010,02,04,20,28,11.40
2010,02,04,20,29,11.40
2010,02,04,20,30,11.40
2010,02,04,20,31,11.40
2010,02,04,20,32,11.40
2010,02,04,20,33,11.40
2010,02,04,20,34,11.40
2010,02,04,20,35,11.40
2010,02,04,20,36,11.40
2010,02,04,20,37,11.40
2010,02,04,20,38,11.40
2010,02,04,20,39,11.40
2010,02,04,20,40,11.40
2010,02,04,20,41,11.40
2010,02,04,20,42,11.40
2010,02,04,20,43,11.40
2010,02,04,20,44,11.40
2010,02,04,20,45,11.40
2010,02,04,20,46,11.40
2010,02,04,20,47,11.40
2010,02,04,20,48,11.40
2010,02,04,20,49,11.40
2010,02,04,20,50,11.40
2010,02,04,20,51,11.40
2010,02,04,20,52,11.40
2010,02,04,20,53,11.30
2010,02,04,20,54,11.30
2010,02,04,20,55,11.30
2010,02,04,20,56,11.30
2010,02,04,20,57,11.30
2010,02,04,20,58,11.30
2010,02,04,20,59,11.30
2010,02,04,21,00,11.20
2010,02,04,21,01,11.20
2010,02,04,21,02,11.20
2010,02,04,21,03,11.20
2010,02,04,21,04,11.20
2010,02,04,21,05,11.20
2010,02,04,21,06,11.20
2010,02,04,21,07,11.20
2010,02,04,21,08,11.20
2010,02,04,21,09,11.20
2010,02,04,21,10,11.20
2010,02,04,21,11,11.20
2010,02,04,21,12,11.20
2010,02,04,21,13,11.20
2010,02,04,21,14,11.20
2010,02,04,21,15,11.20
2010,02,04,21,16,11.20
2010,02,04,21,17,11.20
2010,02,04,21,18,11.20
2010,02,04,21,19,11.10
2010,02,04,21,20,11.10
2010,02,04,21,21,11.10
2010,02,04,21,22,11.10
2010,02,04,21,23,11.10
2010,02,04,21,24,11.10
2010,02,04,21,25,11.10
2010,02,04,21,26,11.10
2010,02,04,21,27,11.10
2010,02,04,21,28,11.10
2010,02,04,21,29,11.10
2010,02,04,21,30,11.10
2010,02,04,21,31,11.10
2010,02,04,21,32,11.10
2010,02,04,21,33,11.10
2010,02,04,21,34,11.10
2010,02,04,21,35,11.10
2010,02,04,21,36,11.10
2010,02,04,21,37,11.20
2010,02,04,21,38,11.20
2010,02,04,21,39,11.20
2010,02,04,21,40,11.20
2010,02,04,21,41,11.20
2010,02,04,21,42,11.20
2010,02,04,21,43,11.20
2010,02,04,21,44,11.20
2010,02,04,21,45,11.10
2010,02,04,21,46,11.10
2010,02,04,21,47,11.10
2010,02,04,21,48,11.10
2010,02,04,21,49,11.00
2010,02,04,21,50,10.90
2010,02,04,21,51,10.90
2010,02,04,21,52,10.90
2010,02,04,21,53,10.90
2010,02,04,21,54,10.90
2010,02,04,21,55,10.90
2010,02,04,21,56,10.90
2010,02,04,21,57,10.90
2010,02,04,21,58,10.90
2010,02,04,21,59,10.90
2010,02,04,22,00,10.90
2010,02,04,22,01,10.90
2010,02,04,22,02,10.90
2010,02,04,22,03,10.90
2010,02,04,22,04,10.90
2010,02,04,22,05,10.90
2010,02,04,22,06,10.90
2010,02,04,22,07,10.90
2010,02,04,22,08,10.90
2010,02,04,22,09,11.00
2010,02,04,22,10,11.10
2010,02,04,22,11,11.10
2010,02,04,22,12,11.10
2010,02,04,22,13,11.10
2010,02,04,22,14,11.10
2010,02,04,22,15,11.10
2010,02,04,22,16,11.10
2010,02,04,22,17,11.10
2010,02,04,22,18,11.10
2010,02,04,22,19,11.10
2010,02,04,22,20,11.10
2010,02,04,22,21,11.10
2010,02,04,22,22,11.10
2010,02,04,22,23,11.10
2010,02,04,22,24,11.10
2010,02,04,22,25,11.10
2010,02,04,22,26,11.00
2010,02,04,22,27,10.90
2010,02,04,22,28,10.90
2010,02,04,22,29,10.90
2010,02,04,22,30,10.90
2010,02,04,22,31,10.90
2010,02,04,22,32,10.90
2010,02,04,22,33,10.90
2010,02,04,22,34,10.90
2010,02,04,22,35,10.90
2010,02,04,22,36,10.90
2010,02,04,22,37,10.90
2010,02,04,22,38,11.10
2010,02,04,22,39,11.10
2010,02,04,22,40,11.10
2010,02,04,22,41,11.10
2010,02,04,22,42,11.10
2010,02,04,22,43,11.00
2010,02,04,22,44,10.90
2010,02,04,22,45,10.90
2010,02,04,22,46,10.90
2010,02,04,22,47,10.90
2010,02,04,22,48,10.90
2010,02,04,22,49,10.90
2010,02,04,22,50,10.90
2010,02,04,22,51,10.90
2010,02,04,22,52,10.90
2010,02,04,22,53,10.90
2010,02,04,22,54,10.90
2010,02,04,22,55,10.90
2010,02,04,22,56,10.90
2010,02,04,22,57,10.90
2010,02,04,22,58,10.90
2010,02,04,22,59,10.90
2010,02,04,23,00,10.90
2010,02,04,23,01,10.90
2010,02,04,23,02,10.90
2010,02,04,23,03,10.90
2010,02,04,23,04,10.90
2010,02,04,23,05,10.80
2010,02,04,23,06,10.80
2010,02,04,23,07,10.80
2010,02,04,23,08,10.80
2010,02,04,23,09,10.80
2010,02,04,23,10,10.70
2010,02,04,23,11,10.70
2010,02,04,23,12,10.70
2010,02,04,23,13,10.60
2010,02,04,23,14,10.60
2010,02,04,23,15,10.60
2010,02,04,23,16,10.60
2010,02,04,23,17,10.50
2010,02,04,23,18,10.40
2010,02,04,23,19,10.40
2010,02,04,23,20,10.40
2010,02,04,23,21,10.40
2010,02,04,23,22,10.30
2010,02,04,23,23,10.30
2010,02,04,23,24,10.40
2010,02,04,23,25,10.40
2010,02,04,23,26,10.40
2010,02,04,23,27,10.30
2010,02,04,23,28,10.40
2010,02,04,23,29,10.40
2010,02,04,23,30,10.40
2010,02,04,23,31,10.40
2010,02,04,23,32,10.40
2010,02,04,23,33,10.40
2010,02,04,23,34,10.40
2010,02,04,23,35,10.40
2010,02,04,23,36,10.40
2010,02,04,23,37,10.40
2010,02,04,23,38,10.30
2010,02,04,23,39,10.30
2010,02,04,23,40,10.40
2010,02,04,23,41,10.40
2010,02,04,23,42,10.40
2010,02,04,23,43,10.40
2010,02,04,23,44,10.40
2010,02,04,23,45,10.40
2010,02,04,23,46,10.40
2010,02,04,23,47,10.40
2010,02,04,23,48,10.40
2010,02,04,23,49,10.40
2010,02,04,23,50,10.30
2010,02,04,23,51,10.30
2010,02,04,23,52,10.40
2010,02,04,23,53,10.40
2010,02,04,23,54,10.40
2010,02,04,23,55,10.40
2010,02,04,23,56,10.40
2010,02,04,23,57,10.40
2010,02,04,23,58,10.40
2010,02,04,23,59,10.40
